Regional Weather Roundup
Issued by NWS

Home | Current Version | Previous Version | Graphics & Text | Print | Product List | Glossary Off
Versions: 1 2 3 4 5 6 7 8 9 10 11 12 13 14 15 16 17 18 19 20 21 22 23 24 25 26 27 28 29 30 31 32 33 34 35 36 37 38 39 40 41 42 43 44 45 46 47 48 49 50

000
ASUS43 KTOP 210959
RWRKS

WEATHER ROUNDUP FOR KANSAS
NATIONAL WEATHER SERVICE GOODLAND KS
400 AM CST SUN JAN 21 2018

NOTE:  "FAIR" INDICATES FEW OR NO CLOUDS BELOW 12,000 FEET WITH NO
SIGNIFICANT WEATHER AND/OR OBSTRUCTIONS TO VISIBILITY.

KSZ001>006-013>018-027>032-041>047-211100-
NORTHWEST KANSAS

CITY           SKY/WX    TMP DP  RH WIND       PRES   REMARKS
GOODLAND       CLOUDY    30  27  88 N15       29.75F WCI  19
HAYS           LGT RAIN  35  34  96 N10       29.69S VSB 1/2 WCI  27
HILL CITY      CLOUDY    36  36 100 N13       29.74S FOG     WCI  27
RUSSELL        FOG       35  35 100 N8        29.67S VSB 1/4
$$

KSZ061>065-074>080-084>089-211100-
SOUTHWEST KANSAS

CITY           SKY/WX    TMP DP  RH WIND       PRES   REMARKS
DODGE CITY     CLOUDY    28  25  88 NW16      29.68R FOG     WCI  16
GARDEN CITY    FOG       31  30  96 N16       29.70R VSB 3/4 WCI  20
GREAT BEND     CLOUDY    26  25  96 NW5       29.66S FOG
LIBERAL        CLOUDY    30  22  72 NW14      29.70R WCI  19
$$

KSZ066>073-081>083-090>101-211100-
SOUTHEAST KANSAS

CITY           SKY/WX    TMP DP  RH WIND       PRES   REMARKS
CHANUTE        MOCLDY    55  52  89 S16       29.79F
COFFEYVILLE    CLEAR     56  52  86 S17G26    29.81S
HUTCHINSON     CLOUDY    42  42 100 SE8       29.66F
MEDICINE LODGE   N/A     57  35  43 SE7       29.65F
NEWTON         FOG       42  42 100 SE9       29.69F VSB 1/2
PARSONS        MOCLDY    56  53  90 S14G24    29.81S
WICHITA INTL   CLOUDY    51  49  92 S12       29.69S
WICHITA JABRA  CLOUDY    48  48 100 S12       29.70S
WICHITA MCCONL CLOUDY    51  49  93 S17       29.69F
WINFIELD       CLEAR     53  52  96 S22       29.73F
$$

KSZ007>012-019>026-033>040-048>060-102>105-211100-
NORTHEAST KANSAS

CITY           SKY/WX    TMP DP  RH WIND       PRES   REMARKS
CONCORDIA      FOG       37  37 100 E7        29.71F VSB 1/4
EMPORIA        CLOUDY    53  50  89 S20G28    29.72F
LAWRENCE       CLOUDY    48  47  96 E9        29.78F
MANHATTAN      FOG       42  41  96 N5        29.73F VSB 1/2
OLATHE IND     CLOUDY    51  50  96 SE13      29.79F
OLATHE EXE     CLOUDY    46  45  96 SE9       29.80F
SALINA         FOG       32  32 100 CALM      29.69S VSB 3/4
TOPEKA BILLARD CLOUDY    43  43 100 E7        29.76F FOG
TOPEKA FORBES  CLOUDY    47  46  97 SE9       29.75F FOG
$$



USA.gov is the U.S. government's official web portal to all federal, state and local government web resources and services.